Theta_e
308 308 307 306 305 304 304 303 302 302 301 299 300 300 300 300 298 296 294 294 293 293 292 292 292 292 292 292 293 293 293 292 292 292 290 289 288 288 287 287 287 287 286 286 286 286 286 286 286 285 285 285 285 284 284 284 284 284 283 282 281 280 279 279 278 281 286 287 286 286 284 284 286 285 283 285 284 280 279 279 278 279 280 280 280
309 309 308 306 305 304 303 302 301 301 301 299 298 298 298 298 298 297 295 294 293 292 292 292 292 292 292 292 292 292 292 292 292 291 290 289 288 288 287 287 287 287 286 286 286 286 286 286 285 285 285 285 285 284 284 284 284 284 283 282 281 280 278 278 277 277 282 286 286 285 285 283 284 286 284 283 284 280 277 277 277 277 278 278 278
310 308 307 307 306 305 303 302 300 299 299 298 297 297 297 297 296 296 295 294 293 292 292 291 291 292 292 292 292 292 292 292 292 291 289 288 288 287 287 287 287 286 286 286 286 286 286 285 285 285 285 285 284 284 284 284 283 283 283 282 281 280 278 276 277 276 277 282 283 284 285 284 284 284 282 280 281 279 276 276 276 277 278 277 277
309 308 307 307 306 305 303 302 301 299 299 297 296 295 296 295 295 295 294 293 292 292 291 291 291 291 291 292 292 292 292 292 291 290 289 288 287 287 287 287 286 286 286 286 286 285 285 285 285 285 285 284 284 284 283 283 283 283 282 282 280 279 278 275 275 276 275 277 281 282 283 283 283 283 279 277 278 277 276 276 275 276 277 277 276
307 307 306 306 305 304 303 302 301 300 299 297 296 294 294 294 294 293 293 293 292 291 291 291 291 291 291 291 292 292 292 291 291 289 288 288 287 287 287 286 286 286 286 286 285 285 285 285 285 285 284 284 283 283 283 283 283 283 282 281 280 278 277 275 274 275 275 274 277 280 280 279 280 280 278 277 277 276 275 276 275 275 276 277 276
307 305 304 304 304 303 302 301 300 299 298 298 296 294 293 293 293 293 293 292 291 291 291 291 291 291 291 291 291 291 291 291 290 289 288 287 287 287 286 286 286 286 286 285 285 285 285 285 285 284 284 283 283 283 283 283 282 282 281 279 278 276 275 275 275 275 275 275 275 276 277 277 276 277 277 276 276 276 275 275 276 276 276 276 276
306 305 304 302 302 302 301 301 300 299 298 298 297 295 293 292 292 292 292 291 291 290 290 290 290 290 291 291 291 291 291 290 289 288 288 287 287 286 286 286 286 286 285 285 285 285 285 285 284 284 283 283 282 282 283 282 281 280 279 277 276 276 275 275 275 275 275 276 275 275 276 276 275 276 276 276 275 276 275 275 276 276 276 276 276
306 305 303 302 302 301 301 300 299 298 298 297 295 294 293 292 291 291 291 291 290 290 290 290 290 290 290 291 291 290 290 290 289 288 287 287 286 286 286 286 285 285 285 285 285 285 285 284 284 283 283 282 282 282 282 281 279 278 277 276 275 276 276 276 276 276 276 276 276 276 276 276 276 275 276 276 275 275 276 276 276 276 276 276 276
305 304 303 303 302 301 300 299 297 297 297 296 295 294 293 292 291 291 290 290 290 290 289 290 290 290 290 290 290 290 290 289 288 287 287 286 286 286 285 285 285 285 285 284 285 285 284 284 284 283 282 282 282 282 281 279 277 276 276 276 276 276 276 276 276 276 276 276 276 276 276 276 276 276 276 276 276 276 276 276 276 276 277 277 277
305 304 304 303 302 300 299 298 297 296 296 296 295 294 293 292 291 290 290 290 290 289 289 289 289 290 290 290 290 290 289 288 287 287 286 286 286 285 285 285 285 285 284 284 284 284 284 284 283 283 282 281 282 281 280 277 276 276 276 276 276 276 276 276 277 277 277 277 277 277 277 276 276 276 276 276 276 276 277 277 277 277 277 277 277
305 305 304 303 301 299 298 297 297 296 295 295 295 294 293 292 291 290 290 290 290 289 289 289 289 289 290 290 290 289 289 288 287 286 286 286 286 285 285 285 285 284 284 284 284 284 284 283 283 282 281 281 282 281 279 277 275 275 276 276 276 276 277 277 277 277 277 277 277 277 277 277 277 277 277 277 277 277 276 277 277 277 277 278 278
306 305 304 302 300 300 299 298 297 296 295 295 294 294 293 292 291 290 290 290 289 289 288 289 289 289 289 289 289 289 288 287 286 286 286 286 285 285 285 285 285 284 284 284 283 283 283 282 282 281 281 281 281 280 278 275 274 275 275 276 276 276 277 277 277 277 277 277 277 277 277 277 277 277 277 277 276 276 276 276 276 276 277 277 277
306 305 304 302 301 300 299 298 296 296 295 294 294 293 292 291 290 290 290 289 289 289 288 288 288 289 289 289 288 288 287 286 286 286 286 285 285 285 285 285 284 284 283 283 283 282 282 282 281 281 281 281 280 278 276 274 274 275 275 275 276 276 276 276 277 277 277 277 277 277 277 277 276 276 276 276 276 276 276 276 276 276 276 277 277
306 305 303 302 301 299 298 297 296 295 295 294 293 293 292 291 290 289 289 289 289 288 288 288 288 288 288 288 288 287 286 286 286 285 285 285 284 284 285 285 284 283 283 282 282 282 281 281 281 281 281 280 278 276 275 275 274 275 275 275 275 275 275 276 276 276 276 276 276 276 276 276 276 276 276 276 276 276 276 277 277 277 277 277 277
306 304 303 302 301 299 298 297 296 295 295 294 293 292 292 291 290 289 289 289 289 288 288 288 288 288 288 287 287 287 286 285 285 285 285 285 284 284 285 284 283 282 282 282 281 281 280 280 280 280 279 278 277 276 275 275 275 274 275 275 275 275 275 275 276 276 276 276 276 276 276 277 277 277 277 277 277 277 277 277 277 277 277 278 278
305 304 303 302 301 300 299 297 296 295 294 294 293 292 291 290 290 289 289 289 288 288 288 288 288 288 287 287 287 286 286 286 286 286 285 284 284 285 284 283 282 281 281 281 280 280 280 280 280 279 277 277 277 276 275 275 275 275 275 275 275 275 275 275 276 276 276 276 276 277 277 277 277 277 277 278 278 278 278 278 278 278 278 278 278
306 305 304 303 302 301 299 298 296 295 294 294 293 292 291 290 290 289 289 288 288 287 287 287 287 287 287 287 286 286 286 287 287 285 285 284 284 284 283 282 281 281 280 280 280 280 280 280 279 278 276 276 277 276 276 275 274 275 275 275 275 275 275 275 275 275 275 275 276 276 276 276 277 277 277 278 278 278 278 278 279 279 279 279 279
306 306 305 304 303 301 299 298 297 296 295 294 293 292 291 290 290 289 289 288 288 287 287 287 287 287 286 286 286 286 287 287 286 285 285 284 283 283 282 281 280 280 280 280 280 280 280 280 279 277 276 277 277 276 275 275 275 275 275 275 275 275 275 275 275 275 274 274 275 275 275 275 276 276 276 276 276 276 277 277 278 278 279 279 279
307 306 306 305 303 301 299 297 296 295 295 294 293 292 291 290 289 289 288 288 287 287 287 287 287 286 286 286 286 287 288 287 286 285 284 283 282 281 281 280 280 280 280 280 280 280 280 279 279 278 277 277 276 275 274 275 275 275 275 275 274 274 275 275 274 274 274 274 274 274 274 274 274 275 275 275 275 275 275 276 276 277 278 278 278
306 305 303 302 301 300 299 298 296 295 295 293 292 291 290 290 289 288 288 287 286 286 286 286 286 286 286 286 287 288 288 286 285 285 283 282 281 281 280 279 280 280 280 280 280 279 279 279 278 278 277 277 276 275 274 275 275 274 274 274 274 274 275 274 274 274 274 274 274 274 274 275 275 274 274 274 274 275 275 276 277 277 278 278 278
304 303 302 300 300 299 298 297 296 294 293 292 291 290 289 289 289 288 287 286 286 286 286 286 286 286 286 287 288 288 287 286 285 284 282 282 281 280 279 279 279 279 279 279 279 279 279 278 278 277 277 277 276 275 275 275 274 274 274 274 274 274 273 273 274 274 274 274 274 275 275 275 274 273 272 272 273 274 275 277 278 278 279 279 279
302 302 301 300 299 298 297 296 294 293 292 291 290 289 288 288 288 287 286 285 285 285 286 286 285 286 287 288 288 287 286 285 284 283 282 281 280 279 279 279 279 279 279 278 278 278 278 277 277 277 277 276 275 275 275 274 274 274 274 274 274 274 273 273 274 275 275 275 275 275 274 273 272 271 271 272 272 273 274 275 277 278 279 279 279
300 300 300 299 299 298 296 295 293 292 291 290 289 289 288 288 287 286 285 285 285 285 285 285 286 286 287 288 287 287 285 284 283 282 281 280 279 279 279 279 279 278 278 278 278 278 277 277 277 277 276 275 274 274 274 274 274 274 274 274 274 274 274 274 275 275 275 274 273 273 272 271 270 271 271 271 272 272 273 273 274 275 276 277 278
299 299 299 298 297 296 295 294 293 291 290 290 289 288 288 287 286 285 284 284 285 285 285 285 286 287 287 288 287 286 284 283 282 281 280 280 279 278 278 279 279 278 278 278 278 277 277 276 276 275 275 274 274 274 274 274 274 274 274 274 274 274 274 275 275 274 273 272 271 270 270 270 270 271 271 271 271 272 272 272 272 273 274 275 276
300 299 298 297 296 295 294 292 291 290 290 289 289 288 288 287 286 285 284 284 284 285 285 285 286 287 288 288 287 285 283 282 281 280 280 279 278 278 278 279 279 278 278 278 278 277 276 275 275 275 275 274 274 274 274 274 274 274 274 274 274 274 274 274 273 271 270 269 269 269 269 270 270 270 271 271 271 271 271 271 271 272 272 273 275
301 300 299 297 296 294 293 291 290 289 288 288 288 288 288 287 286 285 284 284 284 284 285 286 287 287 287 287 285 284 282 281 280 280 279 278 278 278 278 278 278 278 278 278 277 276 276 275 275 275 274 274 274 274 274 274 274 274 274 274 274 274 274 273 271 270 269 269 269 269 269 269 270 270 271 271 271 271 271 271 271 271 272 272 273
300 300 299 298 296 295 294 292 291 289 288 287 286 286 286 286 286 285 284 284 284 284 285 286 287 287 286 285 283 282 281 280 280 279 279 278 278 278 278 278 278 277 277 277 277 276 275 275 274 274 273 273 274 274 274 274 274 274 274 274 274 274 273 272 270 269 269 269 269 269 269 270 270 270 271 271 271 271 271 271 271 271 271 271 272
299 299 299 298 297 296 295 293 292 290 288 287 286 285 285 285 285 285 285 285 285 285 286 287 287 287 287 285 282 281 280 279 279 279 278 278 278 279 279 278 277 277 276 276 276 275 275 274 273 273 274 274 274 275 275 274 274 273 273 273 273 273 273 272 270 270 269 269 269 269 269 270 270 270 271 271 271 271 271 271 271 271 271 271 272
299 298 298 298 298 297 295 293 291 290 288 286 285 285 284 284 284 284 284 285 285 285 286 287 288 288 287 285 284 282 281 280 279 278 278 278 278 279 278 277 276 276 275 275 275 274 274 273 273 274 274 274 275 275 275 274 274 273 273 273 273 273 272 271 270 270 269 269 269 269 269 270 270 270 271 271 271 271 271 271 270 270 270 270 271
298 297 297 297 297 296 294 292 290 288 287 286 284 283 282 282 283 283 283 284 285 286 287 287 288 288 286 284 282 281 280 280 278 277 278 278 277 277 277 276 275 275 275 274 274 274 274 273 273 274 274 274 274 274 274 273 273 273 272 272 272 272 272 271 270 269 269 269 269 269 269 270 270 270 271 271 271 271 270 270 270 270 270 270 270
297 296 296 296 296 295 293 291 289 286 285 284 283 282 280 280 281 281 283 284 285 285 286 286 286 285 283 281 279 278 277 278 277 277 277 277 276 276 275 274 274 274 274 274 274 274 273 273 273 274 274 274 274 273 273 272 272 272 272 272 272 272 271 271 270 269 269 269 269 269 269 270 270 270 270 270 270 270 270 270 270 270 269 270 270
296 296 295 295 294 292 290 289 287 285 283 281 281 281 280 279 279 280 281 282 283 283 282 282 281 280 279 278 278 277 276 276 277 277 277 276 276 275 274 274 274 274 274 274 273 273 273 273 273 273 273 273 273 272 272 272 271 271 271 271 271 271 271 271 270 269 269 269 269 269 269 270 270 270 270 270 270 270 270 270 269 269 269 269 269
296 295 295 294 293 291 289 287 285 284 282 281 280 280 279 279 279 278 278 279 279 279 278 278 278 277 277 276 277 277 276 276 276 276 276 275 275 274 274 274 274 274 273 273 273 273 273 273 273 273 273 272 272 272 272 271 271 271 271 271 271 271 271 270 269 269 269 269 269 269 270 270 270 270 270 270 270 270 270 270 269 269 269 269 269
295 294 294 293 292 291 289 287 285 283 282 280 279 279 278 278 279 278 276 275 275 275 275 276 276 276 276 276 275 275 275 275 275 275 275 275 274 274 273 274 274 273 273 273 272 273 273 273 273 273 272 272 272 272 271 271 270 270 270 271 271 271 271 270 269 269 269 269 269 269 270 270 270 270 270 270 270 270 270 269 269 269 269 269 269
293 293 292 292 291 289 288 287 285 283 281 279 278 278 277 277 278 278 277 276 275 274 274 274 275 275 276 275 275 274 274 274 275 275 274 274 274 273 273 273 273 273 272 272 272 272 273 273 272 272 272 272 271 271 271 270 270 270 270 271 271 271 270 270 269 269 269 269 269 269 270 270 270 270 270 270 270 269 269 269 269 269 269 269 269
292 291 291 290 289 288 287 286 284 282 280 278 277 276 276 276 277 277 277 276 277 276 275 274 274 274 274 274 273 273 273 273 274 274 274 274 273 273 273 273 273 272 272 272 272 272 272 272 272 272 272 271 271 271 270 270 270 270 270 270 271 271 270 270 269 269 269 269 269 269 270 270 270 270 270 269 269 269 269 269 269 269 269 269 269
292 291 290 290 289 287 285 284 282 280 278 277 275 275 275 276 276 276 276 277 277 277 275 274 274 274 273 273 272 271 272 273 274 274 274 273 273 273 273 273 272 272 272 272 272 272 272 272 272 272 271 271 271 271 271 270 270 270 270 270 270 271 270 269 269 269 269 269 269 269 270 270 270 270 269 269 269 269 269 269 269 269 269 269 269
291 291 290 289 288 285 283 281 279 277 276 275 274 274 275 275 275 276 277 278 278 277 276 275 275 275 274 273 272 272 273 274 274 274 273 273 273 273 273 273 272 272 273 273 273 272 272 272 272 271 271 271 271 271 271 271 270 270 270 270 270 271 270 270 269 269 269 269 269 270 270 270 270 270 269 269 269 269 269 269 269 269 268 268 268
288 288 287 286 284 283 281 279 277 276 275 274 274 274 275 275 276 277 278 278 278 277 277 276 276 275 274 274 274 274 274 274 274 273 273 273 273 273 273 273 272 273 273 272 272 272 272 272 271 271 271 271 271 271 271 271 270 270 270 270 270 271 270 269 269 269 269 269 269 270 270 270 270 269 269 269 269 269 269 269 269 268 268 268 268
287 286 285 283 281 280 279 277 276 275 274 274 274 274 275 276 277 278 279 279 278 277 277 277 276 275 274 274 274 274 273 273 273 273 273 273 273 273 272 272 272 272 272 272 272 272 271 271 271 271 271 271 271 271 271 270 270 270 269 270 270 270 270 269 269 269 269 269 269 270 270 270 269 269 269 269 269 269 269 269 268 268 268 268 268
286 285 283 281 279 277 276 275 274 274 273 273 273 274 275 277 279 280 280 279 278 277 276 276 275 274 273 273 273 273 273 273 273 273 273 272 272 272 272 272 272 272 272 272 272 271 271 271 271 271 271 271 271 271 271 270 270 270 269 270 270 270 270 269 269 269 269 269 270 270 270 270 269 269 269 269 269 269 269 268 268 268 268 268 268
285 283 281 278 277 276 275 274 273 273 272 272 273 275 277 279 280 280 279 278 278 277 276 275 274 273 272 272 272 272 272 272 272 272 272 272 272 272 272 272 272 272 272 271 271 271 271 271 271 271 271 271 270 271 271 271 270 270 269 270 270 270 270 269 269 269 269 269 270 270 270 269 269 269 269 269 269 268 268 268 268 268 268 268 268
282 281 279 277 275 274 274 273 273 272 272 273 275 277 279 280 280 279 278 277 277 277 276 274 273 272 271 271 271 272 272 272 272 272 272 272 272 272 272 272 271 271 271 271 271 271 271 271 271 271 271 270 271 270 270 270 270 270 269 269 270 270 269 269 269 269 269 270 270 270 269 269 269 269 269 269 268 268 268 268 268 268 268 268 268
279 278 276 275 273 273 273 273 273 272 273 275 277 279 280 279 279 278 277 277 276 275 275 274 273 272 271 272 272 272 272 272 271 271 272 272 272 272 271 271 271 271 271 271 271 271 271 271 271 270 270 270 271 270 270 270 270 270 270 270 270 270 269 269 269 269 269 270 270 270 269 269 268 268 268 268 268 268 268 268 268 268 268 268 268
276 275 274 273 272 272 272 272 272 273 275 277 278 278 278 277 277 277 276 276 275 274 274 273 273 272 272 272 272 272 271 271 271 272 272 272 272 271 271 271 271 271 271 271 271 270 270 270 270 270 270 271 271 271 270 270 270 270 270 270 270 270 269 268 269 269 270 270 270 270 269 269 268 268 268 268 268 268 268 268 268 268 268 268 268
274 274 273 272 272 271 271 272 273 275 277 278 278 277 277 276 276 276 276 275 275 274 273 272 272 272 272 271 271 271 271 271 272 272 272 272 271 271 271 271 271 270 270 270 270 270 270 270 270 270 271 271 271 271 271 271 270 270 270 270 270 270 269 268 268 269 270 270 270 269 269 268 268 268 268 268 268 268 268 268 268 268 268 268 268
273 273 272 272 272 272 272 273 274 276 276 277 277 276 276 276 276 275 275 274 274 273 272 271 271 271 271 271 271 271 271 272 272 272 272 271 271 271 271 271 270 270 270 270 270 270 270 270 270 270 271 271 271 271 271 271 271 271 270 270 270 270 269 268 268 269 269 269 269 269 269 268 268 268 268 268 268 268 268 268 268 268 268 268 268
272 272 272 272 272 273 273 274 274 275 276 276 276 276 276 275 275 274 274 273 272 271 271 271 270 271 271 271 271 271 271 272 272 271 271 271 271 271 271 270 270 270 270 270 270 270 270 270 270 270 271 271 271 271 271 271 271 271 270 270 270 270 270 269 268 269 269 269 269 269 269 268 268 268 268 269 268 268 268 268 268 268 268 268 268
272 272 272 272 272 273 274 274 274 275 276 276 276 276 275 275 274 273 272 271 271 270 270 270 270 270 271 271 271 271 271 271 271 271 271 271 271 271 270 270 270 270 270 270 270 270 270 270 270 270 270 271 271 271 271 271 271 271 271 270 270 271 270 269 268 269 269 269 269 269 269 269 268 268 269 269 269 268 268 268 268 268 268 268 268
271 271 272 272 272 273 274 275 275 276 276 276 276 276 275 274 273 272 271 271 270 270 270 270 270 271 271 271 271 271 271 271 271 271 271 271 271 270 270 270 270 270 270 270 270 270 270 270 270 270 270 271 271 271 271 271 271 271 271 270 270 271 270 269 268 269 269 269 269 269 269 269 268 268 269 269 269 268 268 268 268 268 268 268 268
270 271 271 272 273 274 274 275 275 275 275 275 275 275 274 273 272 271 270 270 270 270 270 270 270 270 271 271 271 271 271 271 271 271 270 270 270 270 270 270 270 270 270 270 270 270 270 270 270 270 270 271 271 271 271 271 271 271 271 270 270 271 270 269 268 269 269 269 269 269 269 269 268 268 268 269 269 269 268 268 268 267 267 267 268
Wind_Speed
45 45 45 46 48 48 48 49 48 48 49 49 47 45 43 43 43 45 46 45 44 42 40 38 37 35 33 31 29 27 26 25 24 25 25 25 25 24 23 22 22 21 20 20 20 20 22 21 22 22 23 26 27 27 27 27 27 28 27 28 29 28 30 34 42 54 63 60 59 61 59 57 59 58 56 59 57 50 49 49 48 48 50 51 50
47 47 47 48 50 50 50 51 51 50 51 51 51 48 47 45 44 45 46 45 44 43 41 39 37 36 34 32 30 28 27 26 25 26 25 25 25 24 23 22 22 21 21 21 20 21 22 22 22 23 24 27 27 28 28 28 28 30 29 28 29 28 28 31 37 46 57 62 59 59 59 56 57 58 55 56 58 54 51 52 50 48 47 47 49
48 50 50 50 50 50 51 52 52 52 52 53 53 51 49 48 47 46 46 46 45 43 41 40 38 37 35 32 30 29 28 27 26 27 26 26 25 23 23 22 22 22 21 21 21 21 22 23 23 24 26 27 28 28 29 30 30 30 30 29 28 29 27 27 32 40 50 58 58 57 58 57 57 58 56 56 57 56 55 53 51 50 49 48 49
47 50 51 52 51 52 53 53 53 54 54 54 54 53 51 50 49 48 46 46 45 44 42 41 39 38 36 33 31 30 29 28 27 27 27 26 24 23 23 23 22 22 22 21 21 21 22 23 24 25 27 29 29 30 29 30 31 30 31 29 28 28 26 25 29 34 41 51 56 55 55 57 58 58 57 57 57 55 55 54 52 52 52 50 49
44 47 49 52 53 54 54 54 54 55 54 53 53 53 52 51 50 49 47 46 46 45 44 42 40 39 36 34 33 31 30 29 28 28 27 25 24 23 23 23 22 22 22 21 21 22 23 24 25 26 28 30 30 30 30 31 31 31 31 29 28 27 28 27 29 32 38 46 53 55 55 56 58 58 56 57 58 56 55 56 55 53 52 51 50
41 43 46 48 52 54 55 55 55 55 54 53 53 53 53 51 50 49 48 47 46 45 44 43 41 39 37 35 34 32 31 30 28 27 27 26 25 24 23 22 22 22 22 21 21 22 23 24 26 27 28 30 30 30 31 31 31 31 30 28 28 29 31 32 33 35 38 44 50 54 56 56 56 58 57 54 56 58 56 58 59 55 51 51 53
41 42 43 45 48 51 53 56 56 55 53 53 53 53 52 51 50 49 47 46 46 45 44 43 41 39 37 36 34 32 31 29 28 27 26 26 24 24 23 22 22 22 22 22 22 23 24 25 26 28 29 29 30 30 31 31 31 30 30 29 30 31 33 34 36 38 40 44 48 52 56 57 54 56 60 55 54 57 52 51 59 61 55 53 55
42 42 42 43 45 47 50 54 55 54 53 53 53 52 52 51 50 48 47 46 45 45 44 43 41 40 38 36 34 33 31 30 29 27 26 25 24 23 22 21 22 21 21 22 22 23 25 26 27 29 29 29 30 30 30 30 29 30 30 29 30 32 35 37 39 41 42 45 50 52 55 58 55 57 61 55 51 55 51 47 55 63 61 59 60
42 41 42 42 43 44 47 51 53 53 53 53 52 52 51 51 49 48 46 45 44 44 44 43 42 40 39 37 35 33 32 30 28 27 25 24 24 23 22 21 21 22 22 22 23 24 26 27 29 29 29 29 29 29 28 25 25 28 29 29 31 33 36 38 39 41 43 47 51 52 53 57 58 57 58 54 49 51 51 47 51 58 59 60 62
43 41 41 41 41 43 45 48 51 52 53 52 52 52 51 51 50 48 47 45 45 45 45 44 43 41 40 38 35 33 31 29 27 26 25 24 23 22 22 21 21 22 23 23 23 25 26 28 29 29 29 29 28 27 26 23 22 26 28 29 30 32 35 39 40 41 43 46 50 51 52 56 58 55 52 51 47 45 45 44 47 51 52 56 62
43 42 41 41 41 42 44 47 50 52 53 52 52 51 51 50 50 48 47 46 46 47 46 45 44 42 40 38 36 33 31 28 27 25 24 23 22 22 21 21 21 22 23 23 24 25 27 28 29 29 29 29 28 26 25 23 23 26 28 29 29 31 34 37 40 42 43 46 49 51 53 56 58 57 52 48 46 45 46 46 45 48 49 51 56
42 42 41 41 42 42 44 46 49 51 52 52 51 51 50 50 49 48 47 47 47 48 47 46 44 42 40 38 35 33 30 28 26 25 23 22 22 22 21 20 21 22 23 23 24 25 27 28 28 29 29 28 26 26 25 25 25 26 28 29 29 30 31 34 38 41 43 47 50 53 55 56 58 59 55 49 48 49 49 48 47 47 49 51 55
41 42 42 42 43 42 44 46 48 50 50 50 50 50 50 50 49 48 47 47 48 49 48 46 44 43 40 37 34 31 28 27 25 23 22 21 21 21 20 20 21 23 24 24 24 25 26 28 28 28 28 25 24 25 25 26 28 28 29 31 31 31 31 32 35 38 41 45 50 54 57 56 57 60 58 53 52 53 53 54 54 53 54 57 61
40 41 42 42 42 42 44 45 47 48 49 49 50 50 50 50 48 47 47 47 49 50 48 47 45 42 39 36 32 29 27 26 24 22 21 21 21 19 19 21 23 23 23 23 24 25 26 27 27 27 25 23 23 24 25 27 29 30 31 33 34 34 34 34 36 38 40 43 48 54 56 56 57 60 60 57 56 58 59 61 61 60 61 62 64
40 41 41 42 42 43 44 45 46 48 49 49 50 50 50 49 48 47 47 48 49 50 48 47 44 42 38 34 30 28 26 24 22 21 21 21 19 19 20 23 23 23 23 22 23 24 25 25 25 24 23 22 22 23 25 26 28 30 32 33 35 36 38 39 39 40 41 43 47 51 54 55 56 57 58 57 57 58 59 60 61 61 62 63 65
39 40 41 42 42 43 44 46 47 48 49 49 50 50 50 49 48 47 47 48 49 50 48 47 44 41 37 32 29 28 25 23 21 21 21 20 20 21 22 23 23 22 22 21 22 23 23 23 22 21 21 22 23 23 22 24 27 30 32 35 38 40 42 42 40 38 38 40 43 46 49 51 52 53 55 55 55 56 56 58 60 58 57 60 64
39 40 40 41 42 44 45 46 47 48 49 50 50 50 50 49 48 47 48 49 51 51 49 47 43 39 35 32 29 27 25 23 22 22 21 21 22 22 22 22 22 22 21 21 22 22 22 21 19 19 21 22 22 21 20 22 26 30 34 38 41 43 45 44 40 37 36 37 40 42 44 46 47 48 50 50 50 50 51 56 58 53 50 54 57
38 39 39 40 42 44 45 46 48 49 50 50 50 50 50 49 49 48 48 50 51 52 50 46 42 38 34 31 28 26 25 24 23 22 22 22 23 22 21 21 21 21 21 21 21 20 20 18 17 17 20 21 21 20 19 22 27 31 35 39 42 44 44 43 42 42 41 41 41 41 41 43 45 48 50 51 50 49 49 54 57 54 52 56 58
38 38 38 40 42 43 44 46 48 49 49 50 50 50 49 49 48 48 48 50 51 51 49 46 42 38 34 31 28 27 26 24 23 23 23 22 22 21 21 20 21 21 21 21 21 19 18 17 15 16 18 19 19 18 20 23 27 30 33 36 40 43 43 42 42 44 45 46 47 47 48 49 50 51 53 53 51 48 47 49 51 52 55 59 60
37 39 40 41 42 43 44 46 48 49 49 49 50 49 48 48 47 48 49 51 51 50 48 45 42 38 34 31 30 28 26 25 24 24 23 22 22 21 20 20 20 21 20 20 20 18 17 16 16 16 17 17 17 19 21 23 26 28 31 33 37 40 40 40 42 43 46 49 51 51 52 51 50 49 49 48 45 43 41 42 43 46 50 55 57
35 38 40 42 42 43 44 46 47 48 49 49 49 48 47 47 47 47 50 52 52 51 48 45 41 38 35 32 30 28 27 26 25 24 23 23 21 20 20 20 20 20 20 19 18 17 16 16 16 16 16 17 18 20 22 23 24 27 30 32 34 34 35 38 42 44 46 48 48 48 47 47 47 46 44 42 41 39 39 39 40 42 46 50 53
33 36 39 41 42 43 44 46 47 48 49 48 48 47 46 46 46 48 51 54 53 50 47 44 42 39 36 33 31 29 28 27 26 24 24 22 20 19 19 19 18 18 18 18 17 16 16 16 16 16 17 18 19 21 22 23 25 27 29 29 30 31 32 36 40 41 42 43 44 44 44 44 45 45 42 40 39 38 37 37 38 39 42 45 48
32 35 38 40 42 43 45 46 48 48 49 48 47 46 45 46 47 50 53 54 53 50 47 44 42 40 37 35 32 30 29 28 26 25 24 22 20 19 19 18 17 16 17 16 15 14 15 16 16 16 17 18 20 21 22 24 25 26 27 27 29 30 32 35 37 38 39 39 41 43 43 43 44 44 41 38 38 38 39 40 42 42 43 45 47
31 33 36 39 42 43 45 46 48 48 49 48 47 46 45 46 48 51 54 54 52 50 47 44 42 40 37 35 33 31 30 28 26 25 23 22 20 18 18 17 16 15 15 14 13 13 14 14 15 16 17 18 20 21 22 23 23 24 25 26 28 30 32 34 34 35 36 38 40 42 43 42 40 38 37 38 40 41 42 45 47 46 44 45 47
30 31 34 37 40 43 44 46 47 48 49 48 48 47 47 48 51 53 55 54 52 50 48 45 42 40 37 35 33 31 29 28 26 25 23 21 19 18 17 16 14 13 13 12 11 11 12 12 13 15 17 19 20 21 21 21 21 22 24 25 28 30 31 32 32 33 35 38 39 41 42 40 38 37 38 41 42 44 46 48 49 48 46 45 45
31 31 33 35 37 40 43 45 47 48 49 49 48 48 48 50 53 56 57 55 53 51 49 46 42 39 37 35 33 31 30 28 26 25 23 21 19 18 17 15 13 11 10 10 10 10 10 12 14 16 18 19 20 21 21 21 21 22 23 25 28 29 30 31 32 33 35 37 39 41 41 40 40 40 42 44 45 46 47 48 49 48 45 43 44
32 33 34 35 37 39 41 44 46 48 49 50 50 50 51 52 55 59 60 59 55 51 48 45 42 40 37 34 33 31 29 28 26 24 22 20 19 18 16 13 10 8 8 9 8 9 10 12 14 16 18 18 19 20 21 22 22 23 25 26 28 29 29 29 30 31 34 37 39 41 41 41 42 44 45 47 47 47 46 46 47 47 44 42 41
35 35 35 36 38 40 42 45 47 48 50 52 53 54 54 55 57 60 62 62 58 53 49 45 42 39 37 35 33 31 29 27 26 24 22 20 18 17 13 10 7 5 6 8 8 9 11 12 14 16 18 18 19 20 21 22 23 25 27 28 29 29 29 29 30 31 34 36 39 41 43 43 43 44 46 48 48 48 47 47 48 47 44 40 40
37 38 37 38 40 43 45 46 48 49 51 53 55 55 55 56 58 59 59 57 55 51 47 44 41 38 36 35 34 32 30 28 25 22 20 18 16 13 9 6 4 3 5 7 8 9 11 13 14 16 17 19 20 21 22 23 24 26 28 29 30 30 30 31 32 34 36 38 40 42 43 43 44 45 47 49 49 49 48 47 47 46 44 40 39
39 41 41 41 43 45 47 49 50 51 52 54 56 56 55 56 57 57 55 52 49 46 44 41 39 37 36 34 30 27 26 25 23 21 18 15 13 10 6 5 4 4 4 5 7 9 10 12 14 15 17 18 20 21 23 25 27 29 30 30 30 31 32 32 34 35 37 39 40 42 43 44 45 46 48 49 50 50 48 47 45 44 43 40 40
42 43 43 44 45 47 49 50 51 52 53 55 57 57 56 55 54 53 51 49 45 43 40 37 35 33 32 31 28 24 23 23 21 19 17 14 11 9 6 6 5 4 4 5 7 9 10 12 13 14 16 17 20 21 23 26 28 30 32 32 32 31 32 34 35 37 38 40 41 43 43 44 45 47 49 49 50 50 48 47 46 44 42 41 40
44 44 44 45 46 47 49 50 51 52 53 54 56 56 57 56 53 49 47 46 44 41 37 33 31 29 28 28 27 26 24 23 20 18 16 14 11 9 7 7 6 4 3 4 6 8 10 11 12 14 15 17 19 21 23 26 28 30 32 33 33 33 33 34 36 37 39 40 42 44 44 44 46 49 50 49 49 49 48 47 46 44 43 42 41
43 44 45 45 46 47 49 50 50 51 53 55 56 56 57 58 55 49 42 39 38 36 33 31 30 29 28 26 24 24 23 21 19 17 15 13 11 10 8 7 5 3 2 4 5 7 9 10 12 13 15 17 19 21 23 26 28 30 31 32 34 34 34 34 36 38 39 40 42 44 44 45 47 50 50 50 48 48 48 47 46 45 43 42 43
40 42 44 45 47 48 48 49 50 51 52 54 55 56 57 56 55 51 44 38 35 32 30 29 29 28 27 25 23 22 21 20 18 17 15 13 11 10 9 7 4 2 2 3 5 6 7 9 11 14 15 17 19 21 23 25 27 30 31 32 33 34 34 35 37 39 40 42 43 44 45 46 49 50 51 51 49 48 48 47 46 44 43 43 45
39 42 43 45 47 48 48 49 50 51 52 53 54 55 54 51 51 51 47 43 40 36 32 29 28 27 26 25 23 22 20 19 18 16 15 13 12 10 8 6 4 2 2 4 5 6 7 9 11 14 16 17 19 20 22 24 27 29 31 32 33 34 35 36 38 40 41 43 44 45 45 47 50 51 51 51 50 49 48 48 46 45 44 44 45
39 41 43 45 47 48 48 49 50 51 52 53 53 52 51 50 49 48 46 44 42 39 36 32 29 27 26 24 23 21 20 19 18 16 15 14 12 10 8 6 4 3 4 3 3 5 7 9 11 13 15 17 19 20 22 24 26 28 30 31 33 33 35 37 39 40 42 44 45 46 46 49 52 53 52 52 51 49 48 48 47 46 46 44 43
40 42 44 46 47 48 48 49 49 49 50 51 51 50 49 49 48 47 46 44 42 40 38 37 34 31 29 26 24 22 21 20 18 17 15 14 13 11 9 7 5 5 4 2 2 5 7 9 11 14 16 17 19 21 22 24 25 28 30 31 31 33 35 37 39 41 43 45 46 46 47 51 55 56 55 54 52 50 49 48 47 47 47 44 42
40 42 44 46 47 48 49 48 48 48 48 50 50 50 50 49 48 47 45 43 41 40 40 38 37 35 33 31 28 26 23 20 18 17 15 14 13 12 10 8 7 6 3 1 2 4 7 9 11 14 16 18 20 21 23 24 25 27 30 31 31 33 34 37 39 41 44 46 47 47 49 53 57 58 57 55 53 51 50 49 48 48 48 47 46
40 42 44 46 46 47 47 47 47 47 49 51 51 51 51 51 50 48 45 43 41 39 38 37 34 33 31 30 28 25 22 19 18 17 16 15 13 12 10 8 7 5 2 1 2 5 7 9 12 14 16 18 20 21 23 25 26 27 29 31 33 34 35 37 40 43 45 47 48 48 50 55 59 60 58 55 53 52 51 50 49 48 48 49 49
41 43 45 45 45 45 45 45 46 49 51 52 52 53 53 53 50 47 44 41 39 36 35 33 31 29 28 26 24 22 21 19 19 18 16 15 13 11 10 9 7 4 2 1 3 5 8 10 12 15 16 18 20 22 23 25 26 27 29 31 32 34 35 37 40 43 46 48 48 49 52 58 61 61 58 56 54 53 51 50 50 48 48 48 49
42 43 43 43 43 43 43 44 47 50 52 53 53 54 53 51 48 45 42 39 36 34 32 31 29 28 26 24 22 20 20 19 18 17 16 14 13 11 10 8 6 3 1 1 4 6 9 11 13 15 17 19 20 22 24 25 26 27 29 30 32 34 35 37 40 43 46 48 49 49 54 59 61 60 58 56 55 53 51 50 50 48 47 49 49
43 43 43 42 43 44 45 46 49 50 52 52 53 53 51 48 46 43 40 37 35 34 32 31 30 28 27 25 23 22 21 19 18 17 15 14 13 11 9 7 5 3 1 2 4 7 9 12 14 16 18 19 21 23 24 26 27 28 29 31 33 34 35 37 41 44 47 49 49 50 55 60 60 58 57 56 55 54 53 51 50 49 48 50 50
42 43 43 43 44 46 48 50 51 52 52 52 52 50 48 46 43 41 39 38 36 34 33 33 31 29 28 27 26 24 22 20 19 18 16 15 13 11 8 6 4 2 2 4 6 8 10 12 13 15 17 19 21 23 25 26 28 29 30 31 32 33 35 38 41 44 47 48 49 51 56 60 59 58 58 57 56 55 54 52 51 50 49 50 51
40 41 42 43 45 47 49 50 51 52 52 51 50 49 47 46 44 42 40 37 35 34 33 33 32 31 30 29 27 25 23 21 20 19 17 15 12 9 7 5 3 2 3 5 7 9 11 12 13 15 16 18 20 22 23 25 26 28 29 30 32 33 34 37 40 44 47 47 48 52 57 59 58 57 58 57 56 55 54 53 52 52 52 53 54
39 40 42 43 45 47 48 49 50 51 52 51 50 49 47 45 42 40 37 36 35 34 32 31 31 30 29 27 26 25 24 23 21 19 16 13 11 9 7 4 2 2 3 6 7 9 11 12 13 15 16 18 19 21 22 23 24 25 27 28 30 32 33 36 39 43 45 45 47 52 56 57 57 57 58 57 56 54 54 53 53 52 53 54 56
38 39 41 43 45 46 47 49 50 52 53 52 50 48 45 41 38 37 36 35 34 33 32 31 30 29 27 26 25 25 24 23 21 18 15 12 10 8 6 4 2 2 4 6 7 9 11 13 14 16 17 18 20 21 22 23 24 25 26 27 28 30 31 34 38 42 43 44 47 51 54 55 56 56 57 56 55 54 54 53 52 52 52 53 56
36 39 41 43 45 47 49 50 52 53 52 49 46 44 41 39 37 36 34 33 32 32 31 30 30 29 28 27 26 26 24 22 20 17 14 12 10 7 5 3 2 3 4 6 7 9 11 13 15 17 18 20 21 21 22 24 25 25 26 27 28 29 31 33 37 40 41 43 46 49 51 53 54 56 56 56 55 55 55 54 53 52 52 53 55
36 39 41 42 45 48 50 52 52 50 48 46 44 41 39 38 36 34 33 32 32 31 31 31 30 30 29 28 27 26 24 21 19 16 14 11 9 7 5 3 2 3 4 6 7 9 11 13 15 17 18 20 21 22 23 24 25 27 28 28 28 29 30 33 35 38 40 42 45 47 49 51 53 55 56 55 55 55 55 54 54 53 53 53 55
36 39 41 44 47 49 51 50 49 47 45 43 41 39 37 35 34 32 32 31 31 31 31 31 31 30 29 28 27 25 23 20 18 16 13 11 9 7 5 3 3 4 5 6 8 10 11 13 15 17 18 19 21 22 23 24 26 27 28 29 29 29 30 32 34 36 38 41 43 46 48 50 53 55 55 55 55 55 54 54 54 54 53 53 54
38 40 43 45 46 47 47 46 45 43 41 39 38 37 35 33 32 31 31 30 30 30 30 30 29 29 28 27 25 23 21 19 17 15 12 10 8 6 4 4 4 4 5 7 8 10 12 14 16 17 18 19 20 21 23 24 26 27 28 29 30 30 31 32 34 36 37 39 42 45 47 50 53 54 55 55 55 55 55 55 55 54 53 52 53
39 40 42 44 45 45 44 43 41 39 37 35 34 33 33 32 31 31 30 30 30 30 29 28 28 27 26 25 23 21 19 17 15 13 11 9 7 6 4 4 5 5 6 8 10 11 13 15 16 18 18 19 20 21 22 23 25 26 28 29 29 29 30 32 33 35 36 38 40 44 47 50 53 54 54 55 55 55 55 55 55 54 53 52 51
Wind_Direction
235 235 235 235 236 236 236 237 237 237 237 237 237 236 236 236 236 236 235 234 234 234 233 232 232 234 235 236 239 242 245 249 253 257 260 264 268 272 276 280 282 285 287 289 291 292 294 298 301 304 304 303 303 303 302 301 297 294 289 286 283 276 273 269 267 280 294 298 298 299 299 301 303 302 301 302 302 302 302 299 297 297 295 295 294
239 238 237 236 237 237 237 238 238 238 238 237 237 236 236 235 235 234 233 233 234 233 233 232 231 232 233 235 238 241 244 248 251 256 259 262 266 271 275 278 281 283 286 288 289 291 295 299 302 303 303 301 302 302 302 300 296 293 291 287 285 281 273 270 268 273 286 295 298 299 300 301 301 302 302 302 302 303 304 302 302 300 296 293 293
244 241 239 239 239 239 239 239 238 238 239 238 237 236 235 234 233 233 232 232 232 232 232 231 231 232 232 234 237 239 243 246 250 254 257 260 265 270 274 277 279 282 285 287 289 292 296 299 301 302 302 301 301 302 300 298 296 293 293 290 288 286 279 273 271 271 279 290 296 299 301 302 301 302 304 303 303 305 306 305 304 301 298 296 293
249 244 243 243 242 241 240 240 239 238 239 239 238 236 235 234 233 232 231 230 230 229 229 229 229 230 231 232 235 237 241 244 248 253 256 260 264 269 272 275 277 280 283 285 289 293 296 298 300 301 301 301 301 301 299 297 297 295 294 293 291 291 288 281 277 277 280 287 295 299 302 303 303 304 306 305 304 304 304 304 303 301 300 298 295
254 249 247 245 244 243 242 240 239 239 239 239 238 237 236 234 233 232 230 229 228 228 227 227 228 228 230 231 233 236 239 243 247 251 255 260 264 267 269 272 275 279 283 286 289 293 295 298 301 301 301 300 300 300 300 299 298 296 294 296 298 298 297 293 287 286 285 287 294 301 303 302 302 303 306 306 303 302 303 302 302 300 298 298 295
258 253 249 247 245 244 242 241 240 239 238 239 239 238 237 235 233 232 230 229 227 226 226 227 228 228 228 230 232 235 238 242 246 250 254 258 262 265 267 270 275 279 283 287 289 293 296 298 300 300 300 300 300 301 301 300 297 297 298 302 306 305 301 297 295 292 289 288 292 297 300 301 300 300 304 305 300 300 301 300 301 299 296 296 296
259 254 251 248 246 246 245 243 241 239 239 239 239 238 237 236 234 232 231 229 227 226 225 225 226 227 228 229 231 234 237 241 246 249 252 257 260 263 266 270 275 279 283 286 290 294 297 299 299 299 299 300 302 302 301 300 301 304 307 309 308 304 297 295 296 294 291 289 289 291 293 297 298 296 301 303 297 296 298 297 298 300 297 295 294
257 255 252 250 249 248 247 244 241 238 238 238 237 237 237 236 235 233 230 228 226 225 225 225 225 225 227 229 231 234 237 241 245 248 251 256 260 263 266 270 275 279 282 287 292 296 298 299 299 299 301 303 304 304 303 305 307 307 307 303 299 295 292 292 293 291 288 287 288 289 290 294 296 293 296 299 293 291 296 293 292 296 298 296 293
256 254 252 252 252 250 246 243 240 237 236 236 236 237 236 235 234 232 230 227 226 225 224 224 225 225 226 228 230 233 237 241 244 247 251 256 259 261 266 270 275 280 284 289 294 297 298 299 299 300 304 306 306 306 304 304 300 293 290 289 288 288 289 289 288 288 287 286 287 288 288 290 292 291 292 294 289 291 298 294 289 294 297 296 293
256 255 254 254 252 248 244 242 239 236 235 235 235 235 235 234 233 231 229 227 225 224 223 223 224 225 226 227 229 232 236 240 243 246 250 254 257 261 265 271 276 281 286 290 295 298 299 300 300 303 307 307 304 302 301 300 289 279 280 282 284 285 286 286 286 285 286 285 286 287 286 286 288 288 288 290 290 292 296 293 290 295 297 295 294
256 256 256 254 249 245 243 241 238 236 235 234 234 234 234 233 232 230 228 226 224 223 223 223 223 223 225 226 229 232 235 238 241 244 248 252 256 260 264 272 278 283 288 293 297 299 299 300 303 307 307 304 302 301 302 303 294 281 278 280 282 282 282 283 284 284 284 284 285 286 284 283 286 286 285 286 287 287 289 289 288 291 292 291 292
257 256 255 251 247 245 243 241 238 236 234 234 233 233 233 232 231 229 226 225 224 222 222 222 222 223 224 225 228 231 234 236 238 242 247 251 256 260 267 276 283 287 291 295 298 299 300 303 305 305 304 302 304 306 304 302 298 289 282 280 281 280 279 280 282 283 284 284 285 284 283 283 285 286 285 285 286 286 286 284 282 283 286 285 284
257 255 252 249 247 245 242 239 237 235 234 234 233 232 232 231 230 228 226 225 224 222 221 221 222 223 223 225 228 230 232 235 237 241 246 250 256 262 272 281 285 288 291 293 297 299 301 303 302 301 302 304 307 309 306 303 303 299 291 287 286 284 282 280 279 280 281 283 283 282 282 284 285 285 286 286 285 285 284 282 281 279 279 280 280
255 252 250 248 246 243 241 238 236 235 234 233 232 232 231 231 229 228 226 224 223 222 221 221 221 222 223 225 228 230 231 234 236 241 245 249 256 264 275 281 282 284 288 291 296 299 299 300 300 301 304 307 310 310 307 304 302 299 296 295 293 292 290 287 286 286 285 282 281 281 284 286 285 286 288 287 284 283 282 281 281 279 279 280 282
252 250 248 246 244 242 240 237 235 234 233 232 232 231 231 229 228 226 225 224 223 222 221 221 221 222 223 225 227 228 230 233 236 242 247 251 257 266 273 277 278 281 286 290 293 295 296 297 300 304 306 308 311 308 302 299 298 297 297 296 297 299 299 297 297 296 292 288 285 285 287 288 287 288 291 290 287 286 284 283 283 281 280 280 280
249 248 246 246 244 242 239 236 234 233 232 231 230 229 229 228 227 225 224 222 222 220 220 220 220 221 222 223 225 226 228 233 239 244 249 252 258 264 268 271 274 279 283 286 288 290 294 296 301 307 308 307 309 308 304 300 298 298 300 303 306 306 304 302 300 295 290 288 286 286 287 288 288 288 289 289 288 288 287 286 283 280 277 276 276
247 247 246 245 244 241 239 236 234 232 231 230 230 229 228 227 225 224 222 220 219 218 218 218 218 220 221 222 222 224 227 234 240 244 248 253 257 261 264 267 272 276 279 282 286 288 291 296 305 308 306 306 309 311 309 303 300 304 308 309 308 305 304 305 303 297 293 291 289 288 287 287 287 286 286 286 285 286 286 284 282 281 277 274 274
246 245 245 245 243 240 238 236 233 232 231 231 230 229 227 226 224 223 221 219 217 216 216 216 217 218 219 219 220 223 229 234 238 242 247 251 254 257 261 265 270 275 278 282 284 286 291 299 308 307 305 308 311 314 314 308 306 309 309 306 304 303 306 310 309 307 307 304 298 293 290 289 289 288 287 286 285 284 282 279 279 279 278 275 275
248 246 244 243 242 240 238 236 234 233 233 232 231 228 226 225 223 222 220 219 217 215 214 214 216 216 216 215 217 223 229 232 236 241 244 247 251 255 259 265 270 274 278 280 282 288 295 302 308 308 308 310 314 318 317 310 307 306 304 303 303 306 311 315 314 313 311 305 301 298 297 297 296 295 295 294 292 289 284 279 277 276 274 274 274
253 248 244 241 240 239 239 237 235 235 234 232 230 228 226 224 222 220 219 216 214 214 213 213 214 214 212 214 218 223 228 230 234 238 241 243 248 253 258 264 269 273 276 279 285 293 298 304 311 312 310 314 320 322 315 308 306 304 303 304 305 309 315 315 310 307 304 301 302 303 303 303 303 304 305 303 302 298 292 286 283 278 274 272 272
257 252 247 243 241 240 239 238 236 235 233 231 228 226 225 224 223 220 217 214 211 211 212 211 211 211 211 213 217 221 225 228 231 234 238 241 245 250 255 261 266 271 275 280 287 295 303 310 314 313 315 324 326 320 313 312 310 307 306 309 309 311 312 307 304 305 304 304 306 306 307 308 310 311 309 304 302 300 295 290 288 284 278 274 272
262 257 251 247 245 242 240 238 236 233 231 229 227 225 224 224 223 220 216 213 210 210 210 209 209 208 209 212 215 218 221 225 228 231 235 238 239 242 250 257 262 267 273 280 289 298 306 310 312 318 326 328 323 317 317 317 313 310 311 313 313 311 307 304 306 309 309 309 310 311 314 315 315 314 310 303 301 300 297 293 291 287 284 279 276
269 263 257 252 248 244 241 238 235 233 230 228 226 225 224 222 221 219 215 212 210 209 209 209 208 208 208 209 211 214 218 221 224 227 230 233 232 235 243 250 257 262 270 280 290 300 306 310 317 325 328 323 319 320 320 318 315 315 317 316 314 312 311 310 311 312 313 315 318 318 319 318 315 313 309 305 303 301 298 296 295 290 285 281 278
276 267 261 256 250 246 242 238 236 233 230 227 224 223 222 221 218 216 213 211 210 209 208 209 209 208 209 209 210 212 215 218 221 223 226 227 227 230 237 243 250 258 268 280 292 301 308 315 321 323 322 322 322 321 319 318 320 321 322 320 317 316 315 316 318 320 321 322 322 320 319 318 314 309 306 305 304 302 300 299 300 299 294 287 283
284 275 266 259 253 247 242 238 235 233 230 227 224 222 220 218 215 213 210 210 211 211 210 210 210 210 210 211 211 212 213 215 217 219 221 222 223 226 231 237 243 252 264 278 292 303 310 316 319 320 323 324 321 318 318 323 327 328 327 324 322 322 323 325 328 328 325 323 322 320 318 316 311 306 306 307 307 306 306 306 305 305 303 299 295
283 278 271 263 255 248 243 239 236 233 230 228 226 223 220 216 214 211 208 208 210 211 211 210 210 211 212 212 210 210 211 212 215 216 217 217 219 222 227 232 238 247 261 278 293 304 312 319 322 324 325 321 318 319 324 329 332 333 333 331 329 330 332 334 334 330 326 324 323 320 317 315 313 312 313 313 311 311 311 310 309 308 305 301 298
273 272 271 266 258 251 247 242 238 234 230 227 224 222 219 216 214 211 208 207 208 209 210 211 211 211 211 210 209 209 209 209 211 213 214 214 215 219 224 228 232 244 264 281 299 313 322 327 325 321 318 315 316 321 326 330 333 336 337 338 337 336 336 338 336 332 328 327 325 321 319 318 317 317 317 316 314 313 312 310 309 307 305 301 297
270 266 265 263 259 254 250 245 240 236 231 227 222 220 217 215 214 213 211 209 208 207 208 210 212 213 213 211 209 207 207 208 210 211 212 213 215 217 221 227 232 247 275 294 317 330 328 326 319 313 311 313 318 324 328 332 337 340 342 343 341 339 340 341 340 337 335 331 326 324 323 322 320 320 319 317 315 314 313 313 311 308 306 301 295
267 262 258 257 255 252 248 243 239 235 231 226 222 219 217 215 214 214 213 212 211 211 211 212 214 216 216 216 214 212 210 209 208 209 210 211 216 219 221 228 240 257 282 304 324 329 324 318 312 310 314 320 327 332 335 338 342 345 346 346 343 342 343 344 343 342 338 333 328 327 326 324 322 321 320 318 316 315 315 314 312 310 308 301 293
263 258 254 252 251 248 243 239 235 231 227 224 219 216 213 213 213 212 211 211 211 213 215 217 219 219 216 215 215 216 215 210 203 201 203 205 210 216 218 229 251 269 290 309 321 323 319 314 311 315 324 331 335 339 342 345 347 347 347 346 345 345 345 347 347 343 337 333 331 329 328 325 323 322 320 318 316 316 315 315 313 310 307 301 294
262 257 253 252 250 246 241 237 232 227 223 220 217 211 207 207 208 209 209 209 208 209 212 215 217 217 214 209 205 201 202 201 198 196 196 196 198 202 205 218 239 261 289 309 319 320 314 311 315 325 334 338 341 346 350 350 350 348 346 345 346 347 347 348 348 344 338 335 333 332 330 327 323 322 321 319 317 316 315 315 314 311 307 302 295
263 260 257 254 250 244 238 234 230 224 219 216 213 209 205 201 199 200 203 205 205 204 205 205 204 204 204 205 203 198 194 192 191 189 188 188 190 191 197 213 228 246 283 310 316 313 309 312 324 334 339 342 346 351 353 353 352 350 347 344 345 348 349 349 348 345 340 337 335 333 331 327 324 323 322 320 318 317 316 316 315 312 309 303 297
265 263 259 254 248 242 237 232 228 223 218 214 211 207 203 200 195 191 191 195 197 197 196 195 195 193 193 197 200 198 193 187 185 183 181 182 185 187 196 210 221 233 281 307 307 303 308 321 332 339 343 347 351 353 355 355 353 350 347 345 344 346 349 350 350 346 342 339 336 333 331 328 326 325 324 322 320 317 316 316 314 313 310 304 300
264 260 257 254 249 245 239 234 229 223 218 214 209 204 201 199 195 188 181 178 180 183 185 188 189 189 189 190 191 191 188 183 181 179 177 179 183 187 195 203 203 214 272 295 294 298 315 331 337 342 347 350 351 352 354 355 353 350 348 345 344 346 349 351 351 348 344 339 336 334 332 330 328 327 325 324 322 319 317 317 315 312 310 305 302
258 254 252 250 248 244 240 235 229 223 217 211 206 201 198 195 192 188 182 176 174 173 174 178 182 186 187 186 185 185 184 182 180 178 176 178 182 185 193 196 186 197 254 274 287 308 331 341 342 345 348 350 352 352 352 353 352 350 348 346 345 347 350 352 352 349 343 339 336 334 333 331 329 329 327 324 323 320 318 317 315 313 310 307 303
255 250 247 246 244 240 237 233 227 221 215 208 201 197 195 191 188 185 182 179 178 176 173 173 174 177 179 179 179 181 184 184 182 177 175 177 179 182 189 189 179 200 236 262 304 333 343 345 346 349 351 352 352 350 350 351 350 348 348 346 344 347 351 354 353 348 342 339 337 335 333 331 331 331 329 326 324 322 319 318 316 314 312 309 303
255 249 245 243 240 236 233 228 222 216 210 202 196 193 191 188 185 182 180 180 179 177 174 174 173 173 174 173 176 182 188 187 182 176 173 175 178 179 180 179 180 199 220 252 329 342 343 347 351 353 353 354 353 350 349 350 349 347 347 345 344 348 352 354 353 348 343 340 338 335 333 332 332 332 331 329 326 323 321 320 318 315 313 311 306
254 249 245 242 237 231 226 221 214 208 203 197 192 190 187 184 182 181 182 182 182 180 179 179 181 181 179 177 179 185 189 185 178 173 173 175 177 177 175 176 184 195 206 248 329 338 346 351 354 354 354 353 352 350 350 349 349 348 346 345 345 348 352 355 354 350 344 340 338 336 334 333 333 333 333 331 328 326 323 321 319 317 315 313 310
249 243 240 236 231 225 221 214 207 201 196 192 189 187 185 183 181 182 183 183 184 184 184 184 185 185 184 184 184 185 183 178 173 173 174 175 175 174 174 179 186 188 191 281 333 344 351 354 354 354 354 352 351 351 350 350 349 348 346 344 345 347 353 356 355 350 345 341 339 337 335 334 334 334 333 332 330 327 325 322 320 319 317 314 313
246 239 235 230 224 219 215 209 201 195 191 188 186 184 183 182 182 184 186 185 185 186 187 186 185 184 185 186 185 181 179 177 175 175 175 173 171 173 178 183 184 180 184 314 343 349 352 353 353 352 352 351 351 351 350 350 350 348 345 344 345 347 353 357 355 349 345 342 340 338 336 335 335 335 334 333 331 328 326 324 322 320 318 316 314
243 235 229 224 218 213 207 201 195 190 187 185 183 182 181 182 184 186 186 185 184 185 185 184 183 181 182 184 182 180 181 180 177 175 174 172 174 178 181 182 179 175 189 324 344 350 352 352 350 349 350 350 350 350 350 350 351 348 345 344 345 347 353 357 356 350 345 342 340 338 336 336 336 336 335 334 332 330 328 325 324 322 320 319 318
237 229 222 215 210 205 200 193 189 186 184 183 182 182 183 185 186 185 183 182 183 184 182 181 181 180 179 180 182 183 183 181 178 176 175 175 180 183 181 180 182 183 225 323 344 350 351 351 349 348 349 349 349 350 349 349 351 349 345 344 344 347 353 358 356 351 346 343 341 338 336 337 338 337 336 335 334 332 330 328 326 325 323 322 322
228 221 214 207 202 198 194 189 186 184 183 183 183 183 185 185 184 183 182 182 183 182 180 180 179 178 178 181 183 183 182 180 178 178 178 180 183 183 180 183 191 210 293 329 345 350 351 352 351 348 348 349 350 350 350 349 350 349 346 344 344 347 353 358 356 352 347 344 341 338 337 338 339 339 338 337 336 333 332 330 329 328 326 325 325
215 208 202 196 192 189 187 186 184 182 182 182 183 183 183 183 182 181 181 180 180 180 180 179 178 179 181 183 182 181 180 181 180 180 181 181 182 181 184 191 203 249 313 336 346 348 348 351 351 349 348 349 350 351 350 349 350 349 346 343 343 346 353 358 357 352 348 344 339 337 338 339 340 340 339 339 337 335 334 333 331 331 330 329 330
202 196 190 185 183 182 181 181 181 180 180 181 182 181 181 180 179 178 178 178 178 179 180 180 180 182 183 182 180 180 182 182 180 179 179 179 181 184 189 196 213 276 324 339 343 343 345 348 348 348 349 349 350 351 350 349 350 350 347 343 342 345 353 359 359 354 348 343 338 337 339 340 341 341 341 340 339 337 335 335 334 333 333 333 333
192 188 184 180 178 177 177 177 179 180 180 181 180 177 176 176 175 175 175 176 177 178 178 180 181 182 181 181 182 182 182 181 179 178 178 180 184 189 192 201 231 293 327 338 340 341 343 345 345 346 348 349 350 351 350 348 350 351 348 345 342 344 352 359 359 354 348 342 338 338 340 342 343 343 342 341 340 339 338 338 337 335 335 336 336
185 182 179 178 177 175 176 177 178 179 178 177 175 172 171 171 172 173 174 175 176 176 176 178 180 181 181 182 183 182 181 179 177 177 178 182 187 191 196 213 252 303 324 332 336 339 341 343 344 345 347 347 348 349 349 348 349 350 350 347 343 344 352 0 359 352 346 342 339 340 343 344 344 344 344 343 342 341 340 340 340 338 338 339 339
179 176 176 176 176 175 176 176 176 175 173 171 169 168 168 168 170 171 172 173 175 175 176 178 180 181 182 182 181 180 179 178 178 179 181 185 190 193 200 221 261 298 313 324 333 336 338 341 343 344 345 345 346 347 348 348 348 349 351 349 343 344 353 0 358 350 344 341 341 343 346 347 347 347 347 346 345 344 343 342 342 341 341 342 343
174 173 173 174 174 175 175 174 173 172 170 168 166 166 165 166 168 170 171 173 174 175 177 179 179 180 181 180 179 179 178 177 178 182 184 186 190 195 205 230 263 290 306 319 329 334 337 340 343 344 344 343 343 345 348 348 348 350 351 348 343 345 354 360 356 348 343 342 343 347 350 350 349 350 350 349 347 347 346 345 345 344 344 344 346
170 171 171 171 170 170 170 170 170 168 167 165 164 163 163 165 167 169 171 173 175 176 177 178 179 179 180 179 178 178 178 178 181 184 186 188 193 200 214 242 269 291 307 318 327 334 338 341 343 343 342 342 343 345 347 348 348 350 350 347 343 347 355 358 353 346 343 344 347 351 352 352 352 352 352 351 350 350 349 349 348 347 347 346 346
167 167 167 167 166 166 166 166 166 163 162 162 162 162 163 165 167 170 172 174 175 175 176 177 178 178 178 178 178 178 179 181 183 185 188 190 196 206 227 255 275 292 308 320 329 335 338 341 342 341 340 341 342 344 346 347 348 350 350 347 344 348 355 356 349 343 343 347 351 354 354 353 353 354 354 354 353 353 352 351 351 350 349 348 347